Location: Sungai Bunut
(2.6333°N, 113.7333°E)
Time: 16:02:37
(UTC+00:00)

Altair - Pass Details

Date: 10 December 2023
Orbit: 1501 x 1682 km, 47.2° (Epoch: 24 February)

Event Time Altitude Azimuth Distance (km) Brightness Sun altitude
Rises 09:41:40 0° 290° (WNW) 4,626 10.8 7.2°
Reaches altitude 10° 09:45:32 10° 276° (W) 3,653 10.7 6.4°
Maximum altitude 09:52:14 23° 228° (SW) 2,822 10.3 4.8°
Drops below altitude 10° 09:59:05 10° 181° (S) 3,725 9.9 3.3°
Sets 10:03:09 0° 166° (SSE) 4,739 10.2 2.3°
